Flag for Gaza Strip Weather past 2 weeks in Khan Yunis, Gaza Strip

Now
86 °F

Scattered clouds.


Feels Like: 89 °F
Forecast: 75 / 86 °F
Wind: 9 mph from Southwest

Location: El Arish

Current Time: Jul 28, 2014 at 11:39:22 AM

Latest Report: Jul 28, 2014 at 11:00 AM


Visibility: N/A

Pressure: 29.92 "Hg

Humidity: 55%

Dew point: 68 °F

Location of Khan YunisLocation

Historic Weather in Khan Yunis — Graph

°F

Khan Yunis temperature yesterday

Maximum temperature yesterday: 90 °F (at 12:00 PM)
Minimum temperature yesterday: 70 °F (at 5:00 AM)
Average temperature yesterday: 80 °F

Past Weeks' High & Low Weather Summary

 TemperatureHumidityPressure
High90 °F (Jul 27, 12:00 PM)100% (Jul 23, 4:00 AM)29.92 "Hg (Jul 23, 4:00 AM)
Low68 °F (Jul 18, 4:00 AM)40% (Jul 14, 5:00 PM)29.71 "Hg (Jul 25, 5:00 PM)
Average78 °F73%29.80 "Hg
* Reported Jul 13 6:00 PM — Jul 28 10:00 AM, Khan Yunis, Weather by CustomWeather, © 2014

Note: Actual official high and low records may vary slightly from our data, if they occured in-between our weather recording intervals... More about our weather records

Advertising

Khan Yunis weather history for previous 24 hours

 ConditionsComfort  
Time TempWeatherWind HumidityBarometerVisibility
10:00 AM
Jul 28
84 °FScattered clouds.7 mph58%29.92 "HgN/A
9:00 AM82 °FWarm.No wind70%29.92 "HgN/A
8:00 AM79 °FSunny.No wind79%29.92 "Hg10 mi
7:00 AM72 °FClear.No wind94%29.89 "Hg4 mi
6:00 AM70 °FClear.No wind57%29.89 "Hg4 mi
4:00 AM72 °FClear.No wind94%29.89 "Hg10 mi
3:00 AM72 °FClear.No wind94%29.89 "Hg10 mi
2:00 AM73 °FClear.3 mph94%29.89 "Hg10 mi
1:00 AM75 °FClear.9 mph89%29.92 "Hg10 mi
12:00 AM75 °FClear.No wind89%29.92 "Hg10 mi
11:00 PM
Jul 27
77 °FClear.5 mph83%29.92 "Hg10 mi
10:00 PM79 °FClear.3 mph79%29.92 "Hg10 mi
9:00 PM79 °FClear.5 mph84%29.89 "Hg10 mi
8:00 PM81 °FClear.5 mph74%29.86 "Hg10 mi
7:00 PM82 °FSunny.7 mph74%29.86 "Hg10 mi
6:00 PM84 °FSunny.9 mph66%29.86 "Hg10 mi
5:00 PM86 °FSunny.12 mph62%29.86 "Hg10 mi
4:00 PM86 °FSunny.5 mph66%29.86 "Hg10 mi
3:00 PM88 °FSunny.9 mph55%29.86 "Hg10 mi
2:00 PM88 °FSunny.12 mph55%29.86 "Hg10 mi
1:00 PM90 °FSunny.12 mph46%29.89 "Hg10 mi
12:00 PM90 °FSunny.7 mph49%29.89 "Hg10 mi
11:00 AM88 °FSunny.7 mph46%29.89 "Hg10 mi
Weather by CustomWeather, © 2014

See weather overviewHow to use our weather pages